Other Public Products
Issued by NWS Charleston, SC

Current Version | Previous Version | Graphics & Text | Print | Product List | Glossary On
Versions: 1 2 3 4 5 6 7 8 9 10 11 12 13 14 15 16 17 18 19 20 21 22 23 24 25 26 27 28 29 30 31 32 33 34 35 36 37 38 39 40 41 42 43 44 45 46 47 48 49 50
084 FPUS82 KCHS 241327 OPUCHS TEST...KCHS/KSAV Gateway Observations...TEST National Weather Service Charleston SC 900 AM EDT TUE APR 24 2018 NOTE: "fair" indicates few or no clouds below 12,000 feet with no significant weather and/or obstructions to visibility. SCZ050-WAZ558-NCZ071-TXZ119-213-PAZ071-DCZ001-FLZ074-172-MI076- NYZ176-178-MAZ016-IL014-TNZ027-NJZ106-GAZ044-MD014-241400- ...Gateway Observations for Charleston International... CITY SKY/WX TMP DP RH WIND PRES REMARKS Chas Airport PTSUNNY 70 65 84 SW10 29.88S Seattle PTCLDY 52 35 52 NE12 30.20S Charlotte LGT RAIN 60 60 100 E13 29.92R FOG Dallas DFW SUNNY 59 54 83 CALM 30.08R Dallas Love MOSUNNY 60 54 80 NE3 30.10R Philladelphia PTSUNNY 56 39 53 SE12 30.36F Wash National CLOUDY 58 44 60 E9G17 30.28F Baltimore CLOUDY 55 44 66 E12 30.29F Miami FAIR 78 74 87 SW7 30.00S Detroit LGT RAIN 54 46 74 E5 30.14F Newark PTSUNNY 54 42 64 VRB3 30.41S Laguardia PTSUNNY 51 43 74 NE8 30.41F J F K PTSUNNY 53 44 71 SE8 30.42F Boston Logan PTSUNNY 54 34 46 SW12 30.41S Ft. Lauderdale FAIR 78 76 93 SW6 29.99R Chicago O`Hare PTSUNNY 50 38 63 N6 30.06S Chicago Midway PTSUNNY 52 43 71 N5 30.06F Houston Bush FAIR 61 59 93 CALM 30.08R Houston Hobby FAIR 64 61 90 CALM 30.07R Nashville CLOUDY 58 54 86 NW5 29.92S Atlanta CLOUDY 61 60 97 NW10 29.88R $$ GAZ044-118-TXZ119-213-NCZ071-DCZ001-MDZ014-506-PAZ021-071-NJZ106- NYZ176-178-MAZ106-OHZ011-021-055-MIZ076-KYZ091-ILZ014-INZ047- MNZ060-ONZ431-241400- ...Gateway Observations for Savannah International... CITY SKY/WX TMP DP RH WIND PRES REMARKS Savannah Arpt PTSUNNY 66 61 84 W7 29.90S Atlanta CLOUDY 61 60 97 NW10 29.88R Charlotte LGT RAIN 60 60 100 E13 29.92R FOG Dallas DFW SUNNY 59 54 83 CALM 30.08R Houston Bush FAIR 61 59 93 CALM 30.08R Wash National CLOUDY 58 44 60 E9G17 30.28F Wash Dulles CLOUDY 56 44 64 E9 30.26F Baltimore CLOUDY 55 44 66 E12 30.29F Philadelphia PTSUNNY 56 39 53 SE12 30.36F Newark PTSUNNY 54 42 64 VRB3 30.41S Laguardia PTSUNNY 51 43 74 NE8 30.41F J F K PTSUNNY 53 44 71 SE8 30.42F Boston PTSUNNY 54 34 46 SW12 30.41S Pittsburg LGT RAIN 49 44 83 E8 30.15F Akron CLOUDY 54 43 66 SE14 30.14R Cleveland CLOUDY 58 46 64 SE22G29 30.15S Cincinnati LGT RAIN 53 52 96 E10 29.95S Columbus CLOUDY 51 51 100 E14G20 30.03S Detroit LGT RAIN 54 46 74 E5 30.14F Chicago O`Hare PTSUNNY 50 38 63 N6 30.06S Minneapolis FAIR 50 42 74 CALM 30.12S Indianapolis DRIZZLE 52 51 97 NE9 29.98S Toronto Canada CLOUDY 54 36 50 S5 30.19S $$

USA.gov is the U.S. government's official web portal to all federal, state and local government web resources and services.